Flag for Italy Weather past 2 weeks in Palermo, Italy

Now
68 °F

Passing clouds.


Feels Like: 68 °F
Forecast: 58 / 71 °F
Wind: 28 mph from North

Location: Palermo / Punta Raisi

Current Time: Oct 23, 2014 at 5:13:40 AM

Latest Report: Oct 23, 2014 at 4:50 AM


Visibility: 6 mi

Pressure: 29.86 "Hg

Humidity: 46%

Dew point: 46 °F

Location of PalermoLocation

Historic Weather in Palermo — Graph

°F

Palermo temperature yesterday

Maximum temperature yesterday: 75 °F (at 4:50 AM)
Minimum temperature yesterday: 68 °F (at 11:50 PM)
Average temperature yesterday: 73 °F

Past Weeks' High & Low Weather Summary

 TemperatureHumidityPressure
High95 °F (Oct 14, 1:50 PM)94% (Oct 13, 10:50 PM)30.24 "Hg (Oct 13, 10:50 PM)
Low64 °F (Oct 21, 2:20 AM)15% (Oct 14, 8:50 PM)29.74 "Hg (Oct 22, 1:50 PM)
Average75 °F70%30.05 "Hg
* Reported Oct 8 3:20 AM — Oct 23 3:50 AM, Palermo, Weather by CustomWeather, © 2014

Note: Actual official high and low records may vary slightly from our data, if they occured in-between our weather recording intervals... More about our weather records

Advertising

Palermo weather history for previous 24 hours

 ConditionsComfort  
Time TempWeatherWind HumidityBarometerVisibility
3:50 AM
Oct 23
68 °FOvercast.26 mph49%29.86 "Hg5 mi
3:20 AM68 °FPassing clouds.28 mph49%29.86 "HgN/A
2:50 AM68 °FPassing clouds.28 mph49%29.86 "Hg5 mi
2:20 AM68 °FPassing clouds.25 mph53%29.86 "Hg6 mi
1:50 AM68 °FPassing clouds.24 mph53%29.83 "HgN/A
1:20 AM68 °FPassing clouds.28 mph60%29.83 "Hg5 mi
12:50 AM70 °FPassing clouds.30 mph46%29.83 "HgN/A
12:20 AM68 °FPassing clouds.28 mph60%29.83 "HgN/A
11:50 PM
Oct 22
68 °FLight rain. Passing clouds.26 mph53%29.83 "HgN/A
11:20 PM70 °FPassing clouds.24 mph53%29.83 "HgN/A
10:50 PM70 °FPassing clouds.25 mph53%29.83 "HgN/A
10:20 PM72 °FPassing clouds.23 mph47%29.83 "HgN/A
9:50 PM72 °FPassing clouds.23 mph41%29.80 "Hg6 mi
9:20 PM72 °FPassing clouds.21 mph47%29.80 "Hg6 mi
8:50 PM72 °FPassing clouds.22 mph47%29.80 "HgN/A
8:20 PM72 °FPassing clouds.22 mph57%29.80 "Hg5 mi
7:50 PM72 °FPassing clouds.22 mph53%29.77 "Hg5 mi
7:20 PM72 °FPartly cloudy.26 mph53%29.77 "Hg6 mi
6:50 PM72 °FBroken clouds.22 mph57%29.77 "Hg6 mi
6:20 PM72 °FBroken clouds.25 mph57%29.74 "Hg6 mi
5:50 PM72 °FBroken clouds.26 mph65%29.74 "Hg6 mi
5:20 PM72 °FPartly sunny.26 mph65%29.74 "Hg5 mi
4:50 PM72 °FPartly sunny.24 mph73%29.74 "Hg5 mi
4:20 PM72 °FPartly sunny.24 mph73%29.74 "Hg5 mi
3:50 PM72 °FScattered clouds.24 mph69%29.74 "Hg4 mi
3:20 PM72 °FScattered clouds.24 mph69%29.74 "Hg5 mi
2:50 PM72 °FPartly sunny.25 mph65%29.77 "Hg5 mi
2:20 PM73 °FPartly sunny.26 mph61%29.74 "Hg5 mi
1:50 PM73 °FPartly sunny.24 mph69%29.74 "Hg5 mi
12:50 PM73 °FPartly sunny.26 mph78%29.77 "Hg5 mi
12:20 PM73 °FPartly sunny.28 mph74%29.77 "Hg5 mi
11:50 AM75 °FPartly sunny.26 mph69%29.80 "Hg5 mi
11:20 AM75 °FPartly sunny.26 mph69%29.80 "Hg5 mi
10:50 AM75 °FScattered clouds.24 mph69%29.80 "Hg6 mi
10:20 AM75 °FScattered clouds.23 mph69%29.80 "Hg6 mi
9:50 AM75 °FScattered clouds.26 mph69%29.80 "Hg6 mi
9:20 AM75 °FScattered clouds.24 mph69%29.80 "HgN/A
8:50 AM75 °FScattered clouds.22 mph74%29.80 "Hg6 mi
8:20 AM75 °FPassing clouds.21 mph74%29.80 "HgN/A
7:50 AM75 °FPassing clouds.15 mph78%29.80 "HgN/A
7:20 AM75 °FPassing clouds.14 mph78%29.80 "HgN/A
6:50 AM75 °FPassing clouds.14 mph74%29.80 "HgN/A
6:20 AM75 °FPassing clouds.14 mph74%29.80 "HgN/A
5:50 AM75 °FPassing clouds.18 mph74%29.80 "HgN/A
5:20 AM75 °FPassing clouds.17 mph74%29.80 "HgN/A
Weather by CustomWeather, © 2014

See weather overviewHow to use our weather pages